Home   Weather   Trujillo   Past weeks

Flag for Peru Past Weather in Trujillo, La Libertad, Peru — Yesterday and Last 2 Weeks

Now
70 °F

Passing clouds.


Feels Like: 70 °F
Forecast: 65 / 82 °F
Wind: 14 mph from Southeast

Location: Trujillo Airport

Current Time: Dec 6, 2016 at 11:15:56 am

Latest Report: Dec 6, 2016 at 11:00 am


Visibility: N/A

Pressure: 29.95 "Hg

Humidity: 78%

Dew Point: 63 °F

Location of TrujilloLocation

Past Weather in Trujillo — Graph

°F

Trujillo Temperature Yesterday

Maximum temperature yesterday: 73 °F (at 12:00 pm)
Minimum temperature yesterday: 64 °F (at 2:00 am)
Average temperature yesterday: 68 °F

High & Low Weather Summary for the Past Weeks

 TemperatureHumidityPressure
High73 °F (Nov 24, 12:00 pm)100% (Nov 26, 4:00 am)30.01 "Hg (Nov 26, 4:00 am)
Low61 °F (Nov 22, 4:00 am)61% (Nov 24, 12:00 pm)29.80 "Hg (Nov 28, 4:00 pm)
Average67 °F84%29.91 "Hg
* Reported Nov 21 10:00 am — Dec 6 10:00 am, Trujillo, Weather by CustomWeather, © 2016

Note: Actual official high and low records may vary slightly from our data, if they occured in-between our weather recording intervals... More about our weather records

Advertising

Trujillo Weather History for the Previous 24 Hours

Scroll right to see more
 ConditionsComfort  
Time TempWeatherWind HumidityBarometerVisibility
10:00 am
Tue, Dec 6
70 °FPassing clouds.13 mph73%29.98 "HgN/A
9:00 am68 °FPassing clouds.7 mph83%29.98 "HgN/A
8:00 am68 °FPassing clouds.6 mph83%29.98 "Hg5 mi
7:00 am66 °FPassing clouds.No wind88%29.95 "Hg4 mi
6:00 am64 °FScattered clouds.3 mph88%29.95 "Hg4 mi
5:00 am64 °FOvercast.5 mph94%29.92 "Hg4 mi
4:00 am66 °FOvercast.3 mph88%29.89 "HgN/A
3:00 am66 °FOvercast.5 mph88%29.89 "Hg6 mi
2:00 am66 °FOvercast.7 mph88%29.89 "HgN/A
1:00 am66 °FOvercast.5 mph88%29.92 "HgN/A
12:00 am66 °FPassing clouds.6 mph88%29.95 "HgN/A
11:00 pm
Mon, Dec 5
68 °FMostly cloudy.7 mph83%29.95 "HgN/A
10:00 pm68 °FMostly cloudy.6 mph83%29.95 "HgN/A
9:00 pm68 °FPartly cloudy.7 mph83%29.95 "HgN/A
8:00 pm68 °FPassing clouds.9 mph83%29.92 "Hg5 mi
7:00 pm68 °FPassing clouds.9 mph83%29.89 "Hg6 mi
6:00 pm70 °FScattered clouds.10 mph78%29.89 "Hg6 mi
5:00 pm70 °FPassing clouds.10 mph78%29.86 "Hg6 mi
4:00 pm72 °FPassing clouds.12 mph73%29.86 "HgN/A
3:00 pm72 °FPassing clouds.12 mph73%29.86 "HgN/A
2:00 pm72 °FPassing clouds.12 mph73%29.89 "HgN/A
1:00 pm73 °FPassing clouds.12 mph69%29.89 "HgN/A
12:00 pm73 °FPartly sunny.13 mph69%29.92 "HgN/A
11:00 am70 °FOvercast.12 mph78%29.92 "HgN/A
Weather by CustomWeather, © 2016

See weather overviewHow to use our weather pages